Date,TemperatureHighF,TemperatureAvgF,TemperatureLowF,DewpointHighF,DewpointAvgF,DewpointLowF,HumidityHigh,HumidityAvg,HumidityLow,PressureMaxIn,PressureMinIn,WindSpeedMaxMPH,WindSpeedAvgMPH,GustSpeedMaxMPH,PrecipitationSumIn
2013-12-1,49.2,44.9,37.5,49.2,43.4,-99.9,100,99,100,30.43,29.91,13,8,17,0.13
2013-12-2,48.3,43.0,39.5,48.3,39.2,-99.9,100,97,100,29.91,29.83,6,2,11,0.01
2013-12-3,45.1,41.5,34.9,45.1,37.4,-99.9,100,97,100,29.86,29.74,11,5,20,0.00
2013-12-4,45.1,37.3,32.1,45.1,35.9,-99.9,100,99,100,30.16,29.86,7,2,10,0.00
2013-12-5,53.2,45.3,32.8,53.2,44.3,-99.9,100,99,100,30.18,29.93,12,5,17,0.00
2013-12-6,55.1,49.0,39.3,55.1,45.9,-99.9,100,98,100,30.06,29.85,10,6,17,0.28
2013-12-7,40.6,37.8,33.4,40.6,34.9,-99.9,100,98,100,30.38,29.98,10,5,16,0.28
2013-12-8,34.9,32.1,27.9,34.9,26.0,-99.9,100,95,100,30.53,30.37,5,2,12,0.00
2013-12-9,48.2,40.8,33.2,48.2,39.3,-99.9,100,99,100,30.43,29.80,18,8,27,0.44
2013-12-10,39.6,34.4,27.5,39.5,33.8,-99.9,100,99,100,29.95,29.72,7,3,13,0.04
2013-12-11,35.5,29.2,24.5,35.5,28.5,-99.9,100,99,100,30.20,29.95,11,6,18,0.14
2013-12-12,29.0,24.5,18.1,29.0,23.9,-99.9,100,99,100,30.19,30.07,10,4,17,0.00
2013-12-13,34.0,25.6,16.9,34.0,23.7,-99.9,100,98,100,30.28,29.96,12,5,18,0.01
2013-12-14,33.2,25.7,20.8,33.2,23.7,-99.9,100,98,100,30.51,30.11,17,8,24,0.00
2013-12-15,51.0,36.0,28.2,51.0,33.9,-99.9,100,98,100,30.11,29.25,24,10,34,0.68
2013-12-16,33.2,28.4,23.2,33.2,25.0,-99.9,100,97,100,30.16,29.71,10,5,16,0.00
2013-12-17,44.1,27.4,16.9,44.1,27.4,16.9,100,100,100,30.21,29.79,16,5,22,0.15
2013-12-18,36.6,31.4,27.8,36.6,30.5,-99.9,100,99,100,30.04,29.69,14,6,21,0.02
2013-12-19,45.1,36.9,28.8,44.9,36.9,28.8,100,100,100,30.07,29.93,14,6,19,0.00
2013-12-20,50.4,42.3,33.5,50.4,42.3,33.5,100,100,100,30.09,29.93,11,6,19,0.00
2013-12-21,50.4,47.2,44.1,50.4,45.6,-99.9,100,99,100,29.98,29.89,10,8,18,0.00
2013-12-22,54.4,49.5,45.5,54.4,48.0,-99.9,100,99,100,29.96,29.83,15,7,19,0.01
2013-12-23,49.2,45.3,40.6,49.2,42.3,-99.9,100,98,100,30.00,29.88,8,2,13,0.34
2013-12-24,41.5,36.0,29.0,41.5,34.6,-99.9,100,99,100,30.11,29.94,12,6,19,0.28
2013-12-25,29.0,24.0,19.2,29.0,22.6,-99.9,100,99,100,30.49,30.11,12,5,28,0.00
2013-12-26,40.6,32.6,21.3,40.6,29.8,-99.9,100,98,100,30.46,30.00,14,5,19,0.28
2013-12-27,39.3,31.2,26.4,39.3,29.9,-99.9,100,99,100,30.22,30.14,8,4,12,0.01
2013-12-28,45.8,38.1,29.3,45.8,36.6,-99.9,100,99,100,30.20,29.97,16,6,19,0.00
2013-12-29,53.3,43.4,37.5,53.3,40.4,-99.9,100,98,100,30.02,29.24,23,7,26,0.86
2013-12-30,45.1,38.0,27.0,45.1,38.0,27.0,100,100,100,30.07,29.30,14,6,21,0.00
2013-12-31,30.4,25.5,19.7,30.4,23.5,-99.9,100,98,100,30.11,29.97,9,4,18,0.01